Powrót do katalogu

CZ-12 R/B

AktywnyLEO
NORAD 65115·ROCKET BODY·🇨🇳 China

Wystrzelony Aug 4, 2025 z Wenchang Space Launch Site

Loading…

Następne Przeloty (najbliższe 24 godziny)

TLE

ŚwieżeSource: Space-Track

Epoka: Sep 14, 2026, 03:08 UTC

1 65115U 25168K   26257.13081055 -.00000129  00000-0  13626-4 0  9990
2 65115  49.9827 169.7681 0076468  75.2394 285.6974 14.16540076 57511

Śledź CZ-12 R/B w czasie rzeczywistym z AllMySat

Download on the App Store